www.pogodaiklimat.ru

Погода и климат >> Архив погоды >> Испания >> Виго


ПОГОДА в Виго

  • Прогноз погоды в Виго
  • Монитор погоды в Виго

АРХИВ ПОГОДЫ в Виго

Время (UTC), дата Ветер
(напр.,м/с)
 
Видим.   Явления Облачность Т
(С)
Тd
(С)
f
(%)
Тe
(С)
Тes
(С)
Комфортность P
(гПа)
Po
(гПа)
Тmin
(С)
Tmax
(С)
R
(мм)
R24
(мм)
S
(см)
07 11.08 ЮЗ 2 н/о н/о +14.0 +13.7 98 +13 +13 1020.9 990.3
08 11.08 ЮВ 2 н/о н/о +16.6 +14.1 85 +17 +17 1021.1 990.7
09 11.08 Ю 3 н/о н/о +18.0 +14.0 77 +18 +18 1021.1 990.9
10 11.08 ЮВ 2 н/о н/о +17.8 +14.6 82 +18 +18 1021.6 991.3
11 11.08 З 4 н/о н/о +19.3 +12.6 65 +20 +20 1021.6 991.5
12 11.08 З 5 30 км 5/5 600 м
[Cu Sc]
+19.2 +12.1 63 +20 +24 1021.5 991.4
13 11.08 З 5 н/о н/о +19.9 +12.6 63 +22 +22 комфорт 1021.4 991.3
14 11.08 З 6 н/о н/о +19.7 +12.7 64 +21 +21 комфорт 1021.4 991.3
15 11.08 З 6 30 км 5/5 600 м
[Cu Sc]
+19.6 +12.8 65 +21 +24 комфорт 1021.4 991.3
16 11.08 З 4 н/о н/о +20.0 +12.7 63 +22 +22 комфорт 1021.5 991.4
17 11.08 З 4 н/о н/о +19.3 +11.5 61 +20 +20 1021.7 991.6
18 11.08 СЗ 3 30 км 4/4 600 м
[Cu Sc]
+17.9 +12.4 70 +18 +19 1021.8 991.5 +20.2
19 11.08 СЗ 2 н/о н/о +16.8 +12.2 74 +17 +17 1022.3 991.9
20 11.08 СЗ 3 н/о н/о +16.0 +12.7 81 +16 +16 1022.9 992.4
21 11.08 З 3 15 км 3/3 600 м
[Cu Sc]
+15.3 +12.8 85 +15 +15 1023.6 993.0
22 11.08 С 1 н/о н/о +14.8 +12.5 86 +15 +15 1023.9 993.2
23 11.08 З 1 н/о н/о +14.3 +12.5 89 +15 +15 1023.9 993.2
00 12.08 СЗ 1 15 км 4/4 600 м
[Cu Sc]
+13.6 +12.2 91 +14 +14 1024.0 993.2
01 12.08 СЗ 2 н/о н/о +13.3 +12.2 93 +13 +13 1023.9 993.1
02 12.08 СЗ 1 н/о н/о +13.0 +11.8 92 +13 +13 1023.8 992.9
03 12.08 С 1 н/о н/о +12.6 +11.5 93 +12 +12 1023.5 992.6
04 12.08 СЗ 1 н/о н/о +12.2 +11.1 93 +12 +12 1023.5 992.6
05 12.08 С 1 н/о н/о +12.2 +11.1 93 +12 +12 1023.8 992.8
06 12.08 СЗ 2 н/о н/о +12.3 +10.4 88 +12 +12 1024.1 993.1 +11.6
07 12.08 С 2 н/о н/о +14.4 +12.4 88 +14 +14 1024.3 993.6
08 12.08 СВ 2 н/о н/о +16.2 +13.0 81 +16 +16 1024.5 994.0
09 12.08 С 3 30 км 3/0
[Ci fib]
+17.5 +12.1 71 +18 +24 1024.3 993.9
10 12.08 СВ 4 н/о н/о +19.5 +10.7 57 +21 +21 комфорт 1024.2 994.0
11 12.08 С 3 н/о н/о +20.0 +10.3 54 +22 +22 комфорт 1024.2 994.0
12 12.08 С 4 30 км 6/4 1000 м
[Sc Ci sp]
+19.8 +10.8 56 +21 +27 комфорт 1024.0 993.8
13 12.08 С 5 н/о н/о +21.3 +10.4 50 +23 +23 комфорт 1023.5 993.5
14 12.08 СЗ 4 н/о н/о +21.3 +9.6 47 +23 +23 комфорт 1023.0 993.0
15 12.08 С 4 30 км 8/0
[As op]
+21.4 +10.6 50 +23 +26 комфорт 1022.3 992.3
16 12.08 С 5 н/о н/о +21.5 +11.6 53 +24 +24 комфорт 1022.0 992.1
17 12.08 С 5 н/о н/о +21.0 +11.6 55 +23 +23 комфорт 1021.8 991.8
18 12.08 С 6 30 км 5/1
[Cu hum Cs]
+20.5 +10.9 54 +22 +23 комфорт 1022.0 992.0 +22.0
19 12.08 С 6 н/о н/о +19.1 +9.8 55 +20 +20 1022.6 992.4
20 12.08 С 5 н/о н/о +17.4 +10.5 64 +17 +17 1023.1 992.7
21 12.08 С 5 30 км н/о +16.6 +10.7 68 +16 +16 1023.9 993.4
22 12.08 С 6 н/о н/о +15.6 +11.4 76 +14 +14 1023.6 993.0
23 12.08 С 5 н/о н/о +15.0 +11.6 80 +14 +14 1023.5 992.9
00 13.08 С 4 25 км н/о +14.7 +11.3 80 +13 +13 1023.7 993.0
01 13.08 С 3 н/о н/о +13.5 +11.0 85 +12 +12 1023.0 992.2
02 13.08 СВ 2 н/о н/о +12.8 +10.7 87 +12 +12 1022.5 991.6
03 13.08 С 1 н/о н/о +12.2 +10.1 87 +12 +12 1022.3 991.4
04 13.08 С 1 н/о н/о +11.9 +8.4 79 +13 +13 1022.2 991.2
05 13.08 штиль 0 н/о н/о +11.6 +8.8 83 +11 +11 1022.5 991.5
06 13.08 ЮЗ 1 30 км 8/0
[Cs]
+11.0 +8.9 87 +12 +12 1022.7 991.6 +10.9
07 13.08 Ю 1 н/о н/о +12.5 +9.6 82 +13 +13 1022.7 991.8
08 13.08 В 1 н/о н/о +15.7 +11.0 74 +16 +16 1022.6 992.1
09 13.08 В 1 35 км 3/0
[Ci fib]
+18.1 +11.6 66 +19 +28 1022.4 992.1
10 13.08 ЮЗ 1 н/о н/о +19.1 +10.7 58 +21 +21 комфорт 1022.4 992.2
11 13.08 С 1 н/о н/о +21.3 +12.8 58 +24 +24 комфорт 1022.0 992.1
12 13.08 СВ 2 35 км 1/1 1500 м
[Cu hum Ci fib]
+22.3 +12.8 55 +25 +40 комфорт 1021.8 992.0
13 13.08 З 3 н/о н/о +22.6 +12.2 52 +25 +25 комфорт 1021.7 991.9
14 13.08 З 3 н/о н/о +22.8 +13.0 54 +26 +26 жарко 1021.3 991.5
15 13.08 З 6 35 км 1/1 1000 м
[Cu hum Ci fib]
+21.7 +13.3 59 +24 +28 комфорт 1021.0 991.1
16 13.08 З 7 н/о н/о +21.1 +13.3 61 +23 +23 комфорт 1021.2 991.3
17 13.08 З 5 н/о н/о +21.0 +13.6 63 +24 +24 комфорт 1021.2 991.3
18 13.08 З 5 35 км ясно +20.1 +13.5 66 +22 +23 комфорт 1021.2 991.2 +23.5
19 13.08 З 5 н/о н/о +18.4 +13.5 73 +19 +19 1021.6 991.4
20 13.08 З 5 н/о н/о +16.7 +13.2 80 +16 +16 1021.9 991.5
21 13.08 З 3 35 км ясно +16.0 +12.5 80 +16 +16 1022.2 991.7
22 13.08 З 3 н/о н/о +15.6 +12.7 83 +15 +15 1022.3 991.8
23 13.08 СЗ 2 н/о н/о +14.6 +12.8 89 +14 +14 1022.0 991.4
00 14.08 С 2 35 км ясно +15.4 +13.1 86 +15 +15 1021.9 991.4
01 14.08 СЗ 1 н/о н/о +14.8 +13.2 90 +16 +16 1021.9 991.3
02 14.08 С 2 н/о н/о +14.5 +13.4 93 +14 +14 1022.3 991.7
03 14.08 С 2 35 км н/о +14.8 +13.5 92 +15 +15 1022.3 991.7
04 14.08 З 2 н/о н/о +14.5 +12.9 90 +14 +14 1021.6 991.0
05 14.08 штиль 0 н/о н/о +14.2 +13.1 93 +14 +14 1021.8 991.1
06 14.08 ЮЗ 2 35 км 1/1 1000 м
[Sc Ac trans Ci fib]
+14.6 +12.7 88 +15 +15 1021.7 991.1 +13.9
07 14.08 В 1 н/о н/о +17.4 +14.1 81 +18 +18 1021.8 991.5
08 14.08 ЮВ 1 н/о н/о +18.0 +14.1 78 +20 +20 1022.2 991.9
09 14.08 Ю 2 25 км 9/9 300 м
[St]
+20.4 +14.1 67 +23 +24 комфорт 1021.8 991.8
10 14.08 В 2 н/о н/о +21.0 +15.7 72 +25 +25 комфорт 1022.4 992.5
11 14.08 СВ 2 н/о н/о +22.3 +16.7 71 +27 +27 душно 1022.4 992.6
12 14.08 СВ 3 25 км 10/10 300 м
[Frnb]
+22.6 +17.0 71 +27 +27 душно 1022.1 992.3
13 14.08 СВ 2 н/о н/о +23.0 +18.3 75 +29 +29 очень
душно
1021.9 992.2
14 14.08 З 3 н/о н/о +23.2 +18.0 73 +29 +29 душно 1021.7 992.0
15 14.08 СЗ 3 25 км 9/9 600 м
[Frnb]
+22.8 +18.1 75 +28 +29 душно 1021.5 991.8
16 14.08 СЗ 2 н/о н/о +22.3 +18.2 78 +27 +27 душно 1021.7 991.9
17 14.08 СЗ 2 н/о н/о +22.3 +18.6 80 +28 +28 душно 1021.3 991.6
18 14.08 С 2 30 км 8/8 300 м
[]
+22.1 +18.5 80 +27 +28 душно 1021.1 991.3 +23.5
19 14.08 З 5 н/о н/о +20.0 +18.5 91 +23 +23 комфорт 1021.5 991.5
20 14.08 З 3 н/о н/о +18.8 +18.3 97 +20 +20 1021.9 991.8
21 14.08 З 2 600 м туман 10/10 <50 м
[]
+18.1 +17.8 98 +19 +19 1022.3 992.1
22 14.08 З 1 н/о н/о +18.2 +17.9 98 +20 +20 1022.5 992.3
23 14.08 З 2 н/о н/о +18.1 +17.8 98 +19 +19 1022.7 992.5
00 15.08 С 2 н/о н/о +18.1 +17.9 99 +19 +19 1022.7 992.5
01 15.08 СВ 3 н/о н/о +17.7 +17.5 99 +18 +18 1022.4 992.1
02 15.08 С 3 н/о н/о +17.4 +17.4 100 +17 +17 1022.0 991.7
03 15.08 С 2 н/о н/о +16.7 +16.6 99 +17 +17 1021.5 991.2
04 15.08 С 2 н/о н/о +16.2 +16.0 99 +16 +16 1021.6 991.2
05 15.08 СЗ 1 н/о н/о +14.8 +14.2 96 +15 +15 1021.7 991.1
06 15.08 СВ 1 н/о н/о +15.5 +14.4 93 +16 +16 1021.9 991.4 +14.8
07 15.08 ЮЗ 2 н/о н/о +16.9 +15.5 91 +17 +17 1021.6 991.3
08 15.08 ЮВ 1 н/о н/о +20.5 +15.6 73 +24 +24 комфорт 1021.5 991.5
09 15.08 В 2 н/о н/о +23.0 +15.9 64 +27 +27 душно 1021.3 991.6
10 15.08 ЮЗ 2 н/о н/о +24.1 +16.0 61 +27 +27 жарко 1021.4 991.8
11 15.08 З 4 н/о н/о +23.9 +13.8 53 +26 +26 жарко 1021.5 991.8
12 15.08 ЮЗ 5 10 км ясно +24.2 +16.4 62 +28 +36 душно 1021.1 991.5
13 15.08 З 6 н/о н/о +23.5 +16.0 63 +27 +27 душно 1021.2 991.5
14 15.08 З 5 н/о н/о +24.5 +16.4 61 +28 +28 душно 1020.7 991.2
15 15.08 З 5 15 км ясно +24.6 +16.2 60 +28 +34 душно 1020.2 990.7
16 15.08 З 6 н/о н/о +24.4 +16.7 62 +28 +28 душно 1020.0 990.5
17 15.08 З 5 н/о н/о +23.8 +17.0 66 +28 +28 душно 1019.8 990.2
18 15.08 З 5 15 км ясно +22.6 +16.7 69 +27 +28 душно 1019.7 990.0 +25.2
19 15.08 З 2 н/о н/о +21.3 +16.7 75 +25 +25 комфорт 1019.9 990.1
20 15.08 З 2 н/о н/о +20.0 +16.5 80 +23 +23 комфорт 1020.3 990.3
21 15.08 С 3 15 км ясно +20.7 +15.0 70 +24 +24 комфорт 1020.4 990.5
22 15.08 С 3 н/о н/о +20.0 +15.0 73 +23 +23 комфорт 1020.4 990.4
23 15.08 С 2 н/о н/о +18.9 +15.0 78 +21 +21 комфорт 1020.2 990.1
00 16.08 З 1 15 км ясно +17.8 +15.2 85 +19 +19 1020.4 990.2
01 16.08 СЗ 1 н/о н/о +16.8 +15.0 89 +18 +18 1020.2 989.9
02 16.08 СЗ 2 н/о н/о +15.9 +14.7 93 +16 +16 1020.0 989.6
03 16.08 СЗ 2 15 км ясно +15.4 +14.3 93 +15 +15 1019.7 989.2
04 16.08 С 1 н/о н/о +15.2 +13.7 91 +16 +16 1019.7 989.2
05 16.08 З 2 н/о н/о +14.6 +13.6 94 +14 +14 1019.9 989.3
07 16.08 В 1 н/о н/о +17.4 +15.9 91 +18 +18 1019.8 989.6
08 16.08 ЮЗ 1 н/о н/о +18.2 +15.7 85 +20 +20 1019.8 989.6
09 16.08 ЮЗ 2 40 км {туман} ясно +20.7 +16.1 75 +25 +33 комфорт 1019.3 989.4
10 16.08 Ю 1 н/о н/о +21.9 +16.6 72 +26 +26 душно 1019.7 989.9
11 16.08 З 3 н/о н/о +22.7 +15.7 65 +27 +27 душно 1019.4 989.7
12 16.08 З 5 40 км {туман} 1/1
[Cu hum]
+23.0 +16.0 65 +27 +35 душно 1019.5 989.8
13 16.08 З 5 н/о н/о +23.8 +16.5 64 +27 +27 жарко 1019.3 989.7
14 16.08 З 6 н/о н/о +22.8 +15.6 64 +27 +27 душно 1019.3 989.6
15 16.08 З 5 45 км ясно +22.5 +15.8 66 +27 +33 душно 1019.1 989.4
16 16.08 З 4 н/о н/о +23.1 +16.4 66 +28 +28 душно 1018.7 989.1
17 16.08 З 5 н/о н/о +22.1 +16.9 72 +26 +26 душно 1018.6 988.9
18 16.08 З 5 40 км 6/1 600 м
[Sc Cs]
+21.0 +17.0 78 +25 +25 комфорт 1018.6 988.8 +23.8
19 16.08 З 5 н/о н/о +19.3 +16.9 86 +21 +21 комфорт 1018.8 988.8
20 16.08 З 3 н/о н/о +18.8 +16.8 88 +20 +20 1019.3 989.2
21 16.08 СВ 1 30 км 5/1 300 м
[Cu hum Cs]
+18.3 +16.8 91 +20 +20 1019.6 989.5
22 16.08 З 1 н/о н/о +17.5 +16.2 92 +19 +19 1019.9 989.7
23 16.08 З 1 н/о н/о +17.9 +16.6 92 +19 +19 1019.3 989.1
00 17.08 ЮЗ 2 20 км 3/0
[Ci sp]
+17.4 +16.4 94 +18 +18 1019.2 989.0
01 17.08 З 2 н/о н/о +17.1 +16.1 94 +18 +18 1018.9 988.7
02 17.08 ЮВ 1 н/о н/о +17.6 +16.8 95 +19 +19 1018.5 988.3
03 17.08 ЮЗ 2 н/о н/о +18.2 +16.9 92 +19 +19 1018.0 987.9
04 17.08 Ю 4 н/о н/о +17.2 +16.6 96 +17 +17 1017.9 987.7
05 17.08 Ю 3 н/о н/о +17.6 +16.8 95 +18 +18 1017.9 987.8
06 17.08 Ю 4 25 км 8/8 300 м
[Sc]
+17.6 +16.6 94 +17 +17 1017.7 987.6 +17.0
07 17.08 Ю 4 н/о н/о +18.1 +16.6 91 +18 +18 1017.6 987.5
08 17.08 Ю 4 н/о н/о +19.2 +16.8 86 +21 +21 комфорт 1017.7 987.7
09 17.08 Ю 3 20 км 10/9 600 м
[Sc Ac As]
+20.0 +16.8 82 +23 +23 комфорт 1017.6 987.7
10 17.08 Ю 3 н/о н/о +21.6 +17.0 75 +26 +26 душно 1017.2 987.5
11 17.08 Ю 3 н/о н/о +23.1 +17.5 71 +28 +28 душно 1016.9 987.3
12 17.08 ЮЗ 3 20 км 10/9 600 м
[Sc Ac As]
+23.0 +18.1 74 +29 +29 очень
душно
1016.6 987.1
13 17.08 З 4 н/о н/о +23.7 +18.5 73 +28 +28 душно 1016.2 986.7
14 17.08 З 5 н/о н/о +23.8 +18.4 72 +28 +28 душно 1015.8 986.4
15 17.08 З 4 30 км 5/4 600 м
[Sc As trans]
+23.8 +17.5 68 +28 +32 душно 1015.5 986.1
16 17.08 З 7 н/о н/о +22.2 +18.6 80 +27 +27 душно 1015.5 985.9
17 17.08 З 6 н/о н/о +21.6 +18.5 83 +26 +26 душно 1015.4 985.8
18 17.08 ЮЗ 5 20 км 9/4 200 м
[Sc Ac As]
+20.8 +18.6 87 +25 +25 комфорт 1015.3 985.6 +24.6
19 17.08 З 4 н/о н/о +20.9 +18.1 84 +25 +25 комфорт 1015.0 985.3
20 17.08 ЮЗ 3 н/о н/о +20.8 +17.7 82 +25 +25 комфорт 1014.9 985.2
21 17.08 ЮЗ 3 15 км 10/9 600 м
[Sc Ac As]
+20.5 +17.5 83 +24 +24 комфорт 1015.4 985.6
22 17.08 Ю 3 н/о н/о +20.2 +17.8 86 +24 +24 комфорт 1015.6 985.8
23 17.08 Ю 3 15 км 10/8 300 м
[Sc Ac As]
+19.7 +18.0 90 +23 +23 комфорт 1015.0 985.2
00 18.08 Ю 3 15 км 10/6 200 м
[Sc Ac As]
+19.3 +18.5 95 +22 +22 комфорт 1014.8 984.9
01 18.08 Ю 4 н/о н/о +19.2 +18.5 96 +21 +21 комфорт 1014.2 984.4
02 18.08 Ю 4 н/о н/о +19.3 +18.8 97 +22 +22 комфорт 1013.6 983.8
03 18.08 Ю 4 н/о н/о +19.4 +18.9 97 +22 +22 комфорт 1013.1 983.3
04 18.08 Ю 4 н/о осадки н/о +19.2 +18.9 98 +21 +21 комфорт 1012.7 982.9
05 18.08 ЮЗ 2 н/о осадки н/о +19.2 +19.0 99 +22 +22 комфорт 1012.6 982.8
06 18.08 ЮЗ 3 н/о осадки н/о +18.3 +18.1 99 +19 +19 1013.2 983.3 +18.3 14
07 18.08 С 2 н/о осадки н/о +17.5 +17.3 99 +18 +18 1013.9 983.9
08 18.08 С 2 н/о в посл. час осадки н/о +17.5 +17.3 99 +18 +18 1014.8 984.7

 

Местоположение метеостанции Виго (Испания): широта 42.23 долгота -8.63 высота над уровнем моря 255 м.

В архиве по умолчанию представлена погода в Виго за последнюю неделю. Архивные данные за месяц целиком и за предыдущие месяцы, начиная с января 2011 года, Вы можете получить, выбрав интересующий диапазон дат из раскрывающегося списка и нажав кнопку "Ввод!".


*Определитесь, кто Вы:
робот инопланетянин человек

Внимание! Время в таблицах - всемирное. Для получения местного времени необходимо прибавить поправку, которая равна 1 ч.

Смотрите также архив погоды в соседних городах и на ближайших метеорологических станциях:

Погода в Понтеведре (Испания) (22 км)
Погода в Карбальино (Испания) (49 км)
Погода в Падроне (Испания) (57 км)
Погода в Оренсе (Испания) (64 км)
Погода в Виана-ду-Каштелу (Португалия) (68 км)
Погода в Сантьяго-де-Компостеле (Испания) (73 км)
Погода в Хинсо-де-Лимии (Испания) (76 км)
Погода в Сантьяго (Испания) (76 км)
Погода в Фистерре (Испания) (94 км)
Погода в Порту (Португалия) (111 км)

Пояснения к столбцам:

Ветер - указаны скорость ветра в м/с - средняя за 10 мин, порывы в срок и между сроками (в фигурных скобках) и направление, откуда дует ветер: С - северный, СВ - северо-восточный, В - восточный, ЮВ - юго-восточный, Ю - южный, ЮЗ - юго-западный, З - западный, СЗ - северо-западный.
Видимость - горизонтальная дальность видимости в метрах или километрах. При видимости от 1 до 10 км при отсутствии осадков обычно наблюдается дымка, при ухудшении видимости до 1 км и менее - туман. В сухую погоду видимость может ухудшаться дымом, пылью или мглою.
Явления - указаны атмосферные явления, наблюдавшиеся в срок или в последний час перед сроком; фигурными скобками обозначены явления, наблюдавшиеся между сроками (за 1-3 часа до срока); квадратными скобками обозначены град или гололедные отложения с указанием их диаметра в мм.
Облачность - указаны через наклонную черту общая и нижняя облачность в баллах и высота нижней границы облаков в метрах; квадратными скобками обозначены формы облаков: Ci - перистые, Cs - перисто-слоистые, Cc - перисто-кучевые, Ac - высококучевые, As - высокослоистые, Sc - слоисто-кучевые, Ns - слоисто-дождевые, Cu - кучевые, Cb - кучево-дождевые. Подробнее классификацию облаков см. в Атласе облаков (PDF).
T - Температура воздуха - температура, измеренная на высоте 2 м над землей.
Td - Температура точки росы - температура, при понижении до которой содержащийся в воздухе водяной пар достигнет насыщения.
f - Относительная влажность воздуха - влажноcть воздуха, измеренная на высоте 2 м над землей.
Te - Эффективная температура - температура, которую ощущает одетый по сезону человек в тени. Характеристика душности погоды. При расчете учитывается влияние влажности воздуха и скорости ветра на теплоощущения человека.
Tes - Эффективная температура на солнце - температура, которую ощущает человек, с поправкой на солнечный нагрев. Характеристика знойности погоды. Зависит от высоты солнца над горизонтом, облачности и скорости ветра. Ночью, в пасмурную погоду, а также при ветре 12 м/с и более поправка равна нулю.
P - Атмосферное давление - приведенное к уровню моря атмосферное давление.
Po - Атмосферное давление - измеренное на уровне метеостанции атмосферное давление.
Tmin - Минимальная температура - минимум температуры воздуха на высоте 2 м над землей.
Tmax - Максимальная температура - максимум температуры воздуха на высоте 2 м над землей.
R - Количество осадков - Количество выпавших осадков за период времени, мм. При наведении курсора мыши на число - период времени, за который выпало указанное количество осадков.
R24 - Количество осадков - Количество выпавших осадков за 24 часа, мм.
S - Снежный покров - Высота снежного покрова, см. При наведении курсора мыши на число - состояние снежного покрова и степень покрытия местности в баллах.